FW9917 Weather Reports


Display with metric or nautical units.
time (UTC)temp
F
wind
direction
speed
MPH
gust
MPH
rain 1hr
in
rain 24hr
in
rain mn
in
humidity
%
barometer
mb
20260507195556 66 15 1.0 5.0 0.00 0.00 0.00 40 1024.2
20260507195056 66 15 1.0 5.0 0.00 0.00 0.00 40 1024.3
20260507194556 66 15 1.0 5.0 0.00 0.00 0.00 40 1024.2
20260507194055 66 15 2.0 7.0 0.00 0.00 0.00 43 1024.2
20260507193556 65 0 1.0 7.0 0.00 0.00 0.00 43 1024.2
20260507193053 65 15 1.0 4.0 0.00 0.00 0.00 41 1024.3
20260507192556 65 16 1.0 7.0 0.00 0.00 0.00 41 1024.4
20260507192055 65 15 2.0 7.0 0.00 0.00 0.00 40 1024.4
20260507191558 65 15 2.0 8.0 0.00 0.00 0.00 42 1024.4
20260507191055 65 0 2.0 8.0 0.00 0.00 0.00 41 1024.4
20260507190556 66 360 1.0 5.0 0.00 0.00 0.00 41 1024.4
20260507190054 65 0 1.0 5.0 0.00 0.00 0.00 42 1024.4
20260507185556 65 16 1.0 5.0 0.00 0.00 0.00 40 1024.6
20260507185056 65 14 2.0 5.0 0.00 0.00 0.00 43 1024.5
20260507184555 64 0 1.0 4.0 0.00 0.00 0.00 43 1024.5
20260507184055 64 15 1.0 4.0 0.00 0.00 0.00 41 1024.6
20260507183556 64 15 1.0 3.0 0.00 0.00 0.00 44 1024.7
20260507183056 64 0 0.0 4.0 0.00 0.00 0.00 44 1024.6
20260507182556 63 14 1.0 7.0 0.00 0.00 0.00 45 1024.6
20260507182056 62 15 2.0 7.0 0.00 0.00 0.00 46 1024.7
20260507181555 62 15 1.0 5.0 0.00 0.00 0.00 45 1024.7
20260507181056 62 15 2.0 5.0 0.00 0.00 0.00 45 1024.6
20260507180556 62 14 1.0 5.0 0.00 0.00 0.00 48 1024.7
20260507180100 61 14 2.0 5.0 0.00 0.00 0.00 47 1024.6
20260507175555 62 14 2.0 5.0 0.00 0.00 0.00 46 1024.6
20260507175055 62 15 2.0 5.0 0.00 0.00 0.00 47 1024.6
20260507174608 62 360 2.0 5.0 0.00 0.00 0.00 51 1024.7
20260507174055 62 15 0.0 5.0 0.00 0.00 0.00 54 1024.7
20260507173556 61 15 1.0 5.0 0.00 0.00 0.00 50 1024.5
20260507173057 61 15 1.0 5.0 0.00 0.00 0.00 51 1024.5
20260507172557 60 14 1.0 3.0 0.00 0.00 0.00 54 1024.6
20260507172056 60 14 0.0 3.0 0.00 0.00 0.00 60 1024.5
20260507171610 59 14 0.0 2.0 0.00 0.00 0.00 66 1024.6
20260507171056 58 0 0.0 2.0 0.00 0.00 0.00 65 1024.6
20260507170556 58 0 0.0 2.0 0.00 0.00 0.00 70 1024.6
20260507170055 57 15 0.0 4.0 0.00 0.00 0.00 72 1024.6
20260507165555 56 0 1.0 4.0 0.00 0.00 0.00 75 1024.7
20260507165055 56 0 0.0 3.0 0.00 0.00 0.00 77 1024.7
20260507164556 55 0 0.0 3.0 0.00 0.00 0.00 75 1024.7
20260507164056 54 0 0.0 3.0 0.00 0.00 0.00 78 1024.6
20260507163557 54 15 0.0 3.0 0.00 0.00 0.00 80 1024.7
20260507163053 54 0 0.0 3.0 0.00 0.00 0.00 82 1024.7
20260507162556 53 0 0.0 2.0 0.00 0.00 0.00 83 1024.8
20260507162056 53 0 0.0 2.0 0.00 0.00 0.00 83 1024.7
20260507161602 52 0 0.0 2.0 0.00 0.00 0.00 85 1024.8
20260507161056 52 0 0.0 2.0 0.00 0.00 0.00 86 1024.8
20260507160556 51 0 0.0 2.0 0.00 0.00 0.00 87 1024.8
20260507160056 51 0 0.0 2.0 0.00 0.00 0.00 86 1024.9
20260507155555 50 0 0.0 2.0 0.00 0.00 0.00 88 1024.8
20260507155056 50 0 0.0 2.0 0.00 0.00 0.00 89 1024.8
20260507154555 49 0 0.0 2.0 0.00 0.00 0.00 90 1024.8
20260507154055 49 0 0.0 2.0 0.00 0.00 0.00 91 1024.9
20260507153555 48 0 0.0 2.0 0.00 0.00 0.00 93 1024.9
20260507153103 48 15 0.0 2.0 0.00 0.00 0.00 94 1024.8
20260507152555 47 0 0.0 2.0 0.00 0.00 0.00 95 1024.9
20260507152100 46 0 0.0 2.0 0.00 0.00 0.00 95 1024.7
20260507151555 46 0 0.0 1.0 0.00 0.00 0.00 96 1024.7
20260507151057 45 0 0.0 1.0 0.00 0.00 0.00 96 1024.7
20260507150556 45 0 0.0 0.0 0.00 0.00 0.00 96 1024.8
20260507150059 44 0 0.0 0.0 0.00 0.00 0.00 96 1024.8
20260507145556 44 0 0.0 0.0 0.00 0.00 0.00 96 1024.8
20260507145055 44 0 0.0 0.0 0.00 0.00 0.00 96 1024.8
20260507144557 43 0 0.0 0.0 0.00 0.00 0.00 95 1024.8
20260507144057 43 0 0.0 0.0 0.00 0.00 0.00 95 1024.9
20260507143556 43 0 0.0 0.0 0.00 0.00 0.00 95 1024.8
20260507143059 43 0 0.0 1.0 0.00 0.00 0.00 94 1024.7
20260507142556 43 0 0.0 1.0 0.00 0.00 0.00 94 1024.7
20260507142057 42 0 0.0 1.0 0.00 0.00 0.00 94 1024.7
20260507141559 42 0 0.0 2.0 0.00 0.00 0.00 94 1024.7
20260507141056 42 73 0.0 2.0 0.00 0.00 0.00 94 1024.8
20260507140556 42 0 0.0 1.0 0.00 0.00 0.00 93 1024.7
20260507140107 42 0 0.0 2.0 0.00 0.00 0.00 93 1024.7
20260507135556 42 0 0.0 2.0 0.00 0.00 0.00 93 1024.6
20260507135056 42 0 0.0 2.0 0.00 0.00 0.00 93 1024.5
20260507134558 42 0 0.0 2.0 0.00 0.00 0.00 92 1024.6
20260507134055 42 0 0.0 1.0 0.00 0.00 0.00 92 1024.5
20260507133555 42 0 0.0 1.0 0.00 0.00 0.00 92 1024.5
20260507133100 42 0 0.0 1.0 0.00 0.00 0.00 92 1024.4
20260507132555 42 0 0.0 2.0 0.00 0.00 0.00 92 1024.2
20260507132055 42 0 0.0 2.0 0.00 0.00 0.00 92 1024.2
20260507131556 42 0 0.0 2.0 0.00 0.00 0.00 92 1024.3
20260507131056 42 0 0.0 2.0 0.00 0.00 0.00 92 1024.3
20260507130556 42 66 0.0 2.0 0.00 0.00 0.00 92 1024.3
20260507130106 42 76 0.0 2.0 0.00 0.00 0.00 91 1024.2
20260507125558 42 50 0.0 2.0 0.00 0.00 0.00 91 1024.2
20260507125056 42 0 0.0 2.0 0.00 0.00 0.00 91 1024.2
20260507124632 42 0 0.0 2.0 0.00 0.00 0.00 91 1024.1
20260507124057 42 92 0.0 2.0 0.00 0.00 0.00 91 1024.3
20260507123556 43 0 0.0 2.0 0.00 0.00 0.00 91 1024.1
20260507123056 43 105 0.0 2.0 0.00 0.00 0.00 91 1024.3
20260507122555 43 0 0.0 0.0 0.00 0.00 0.00 91 1024.2
20260507122055 43 0 0.0 0.0 0.00 0.00 0.00 91 1024.2
20260507121555 43 0 0.0 0.0 0.00 0.00 0.00 91 1024.2
20260507121056 43 0 0.0 0.0 0.00 0.00 0.00 91 1024.3
20260507120556 43 0 0.0 0.0 0.00 0.00 0.00 91 1024.2
20260507120057 43 0 0.0 1.0 0.00 0.00 0.00 91 1024.2
20260507115556 43 0 0.0 2.0 0.00 0.00 0.00 91 1024.1
20260507115059 43 0 0.0 2.0 0.00 0.00 0.00 91 1024.2
20260507114611 43 0 0.0 2.0 0.00 0.00 0.00 91 1024.1
20260507114057 43 0 0.0 2.0 0.00 0.00 0.00 91 1024.1
20260507113555 43 0 0.0 2.0 0.00 0.00 0.00 91 1024.2
20260507113056 43 0 0.0 2.0 0.00 0.00 0.00 91 1024.0
20260507112559 43 82 0.0 2.0 0.00 0.00 0.00 91 1024.0
20260507112057 43 0 0.0 2.0 0.00 0.00 0.00 91 1024.1
20260507111556 43 82 0.0 2.0 0.00 0.00 0.00 91 1024.2
20260507111055 43 0 0.0 1.0 0.00 0.00 0.00 91 1024.2
20260507110555 43 0 0.0 1.0 0.00 0.00 0.00 91 1024.2
20260507110104 43 0 0.0 2.0 0.00 0.00 0.00 90 1024.2
20260507105556 43 0 0.0 2.0 0.00 0.00 0.00 91 1024.2
20260507105058 43 0 0.0 2.0 0.00 0.00 0.00 90 1024.3
20260507104557 43 0 0.0 1.0 0.00 0.00 0.00 90 1024.4
20260507104055 43 0 0.0 1.0 0.00 0.00 0.00 90 1024.3
20260507103558 44 0 0.0 1.0 0.00 0.00 0.00 90 1024.4
20260507103106 44 0 0.0 2.0 0.00 0.00 0.00 90 1024.4
20260507102556 44 0 0.0 2.0 0.00 0.00 0.00 90 1024.4
20260507102056 44 82 0.0 2.0 0.00 0.00 0.00 90 1024.4
20260507101559 44 0 0.0 3.0 0.00 0.00 0.00 90 1024.5
20260507101055 44 84 0.0 3.0 0.00 0.00 0.00 90 1024.5
20260507100555 44 0 0.0 2.0 0.00 0.00 0.00 89 1024.4
20260507100059 44 0 0.0 2.0 0.00 0.00 0.00 89 1024.5
20260507095557 44 0 0.0 2.0 0.00 0.00 0.00 89 1024.5
20260507095056 44 0 0.0 2.0 0.00 0.00 0.00 89 1024.5
20260507094558 44 0 0.0 2.0 0.00 0.00 0.00 88 1024.6
20260507094056 44 0 0.0 2.0 0.00 0.00 0.00 88 1024.8
20260507093556 44 84 0.0 2.0 0.00 0.00 0.00 88 1024.8
20260507093056 45 0 0.0 2.0 0.00 0.00 0.00 88 1024.8
20260507092557 45 0 0.0 2.0 0.00 0.00 0.00 88 1024.7
20260507092056 45 78 0.0 2.0 0.00 0.00 0.00 88 1024.8
20260507091557 45 0 0.0 2.0 0.00 0.00 0.00 88 1024.8
20260507091056 45 0 0.0 2.0 0.00 0.00 0.00 87 1024.8
20260507090555 45 82 0.0 2.0 0.00 0.00 0.00 87 1024.8
20260507090055 45 82 0.0 2.0 0.00 0.00 0.00 87 1024.8
20260507085558 45 87 0.0 2.0 0.00 0.00 0.00 87 1024.9
20260507085056 45 87 0.0 2.0 0.00 0.00 0.00 87 1024.9
20260507084553 45 0 0.0 2.0 0.00 0.00 0.00 86 1025.0
20260507084055 45 80 0.0 2.0 0.00 0.00 0.00 87 1024.9
20260507083555 45 0 0.0 2.0 0.00 0.00 0.00 87 1024.9
20260507083056 45 0 0.0 2.0 0.00 0.00 0.00 86 1024.9
20260507082556 45 83 0.0 2.0 0.00 0.00 0.00 86 1024.9
20260507082055 45 83 0.0 3.0 0.00 0.00 0.00 86 1025.0
20260507081556 45 0 0.0 3.0 0.00 0.00 0.00 86 1025.0
20260507081056 46 0 0.0 3.0 0.00 0.00 0.00 86 1025.0
20260507080556 46 83 0.0 3.0 0.00 0.00 0.00 86 1024.9
20260507075558 46 0 0.0 2.0 0.00 0.00 0.00 85 1025.0
20260507075059 46 74 0.0 3.0 0.00 0.00 0.00 85 1025.0
20260507074612 46 0 0.0 3.0 0.00 0.00 0.00 85 1024.9
20260507074056 46 81 0.0 3.0 0.00 0.00 0.00 85 1025.0
20260507073557 46 84 0.0 2.0 0.00 0.00 0.00 84 1024.9
20260507073056 46 0 0.0 2.0 0.00 0.00 0.00 84 1025.0
20260507072556 46 74 0.0 3.0 0.00 0.00 0.00 84 1025.0
20260507072056 47 88 0.0 3.0 0.00 0.00 0.00 84 1025.0
20260507071556 47 81 0.0 2.0 0.00 0.00 0.00 84 1025.0
20260507071055 47 81 0.0 2.0 0.00 0.00 0.00 84 1025.0
20260507070556 47 0 0.0 2.0 0.00 0.00 0.00 84 1025.0
20260507070114 47 80 0.0 2.0 0.00 0.00 0.00 84 1025.0
20260507065558 47 0 0.0 1.0 0.00 0.00 0.00 84 1025.0
20260507065056 47 0 0.0 2.0 0.00 0.00 0.00 83 1025.0
20260507064605 47 82 0.0 2.0 0.00 0.00 0.00 82 1025.0
20260507064056 47 0 0.0 3.0 0.00 0.00 0.00 83 1024.9
20260507063559 47 89 0.0 3.0 0.00 0.00 0.00 82 1024.9
20260507063059 47 81 0.0 2.0 0.00 0.00 0.00 81 1025.0
20260507062555 47 77 0.0 2.0 0.00 0.00 0.00 81 1025.0
20260507062059 48 74 0.0 2.0 0.00 0.00 0.00 80 1025.0
20260507061556 48 0 0.0 3.0 0.00 0.00 0.00 80 1025.0
20260507061057 48 0 0.0 3.0 0.00 0.00 0.00 80 1024.8
20260507060559 48 0 0.0 3.0 0.00 0.00 0.00 79 1024.8
20260507060057 48 0 0.0 3.0 0.00 0.00 0.00 79 1024.8
20260507055555 48 86 0.0 3.0 0.00 0.00 0.00 79 1024.8
20260507055056 48 0 0.0 3.0 0.00 0.00 0.00 79 1024.8
20260507054555 48 81 1.0 3.0 0.00 0.00 0.00 79 1024.8
20260507054055 48 0 0.0 3.0 0.00 0.00 0.00 78 1024.9
20260507053556 48 0 1.0 3.0 0.00 0.00 0.00 77 1024.7
20260507053057 48 0 1.0 3.0 0.00 0.00 0.00 77 1024.8
20260507052556 49 84 1.0 3.0 0.00 0.00 0.00 76 1024.8
20260507052056 49 84 0.0 2.0 0.00 0.00 0.00 76 1024.9
20260507051600 49 84 0.0 2.0 0.00 0.00 0.00 76 1025.0
20260507051055 49 89 0.0 2.0 0.00 0.00 0.00 75 1024.9
20260507050555 49 67 0.0 3.0 0.00 0.00 0.00 75 1024.8
20260507050058 49 0 0.0 3.0 0.00 0.00 0.00 74 1024.7
20260507045556 49 84 0.0 3.0 0.00 0.00 0.00 74 1024.6
20260507045056 49 80 1.0 3.0 0.00 0.00 0.00 73 1024.7
20260507044559 50 0 1.0 3.0 0.00 0.00 0.00 74 1024.6
20260507044056 50 88 0.0 3.0 0.00 0.00 0.00 73 1024.6
20260507043556 50 83 1.0 3.0 0.00 0.00 0.00 72 1024.6
20260507043056 50 82 1.0 3.0 0.00 0.00 0.00 71 1024.5
20260507042557 50 80 0.0 3.0 0.00 0.00 0.00 71 1024.6
20260507042058 50 0 1.0 3.0 0.00 0.00 0.00 69 1024.5
20260507041557 50 83 0.0 3.0 0.00 0.00 0.00 67 1024.5
20260507041056 50 79 1.0 3.0 0.00 0.00 0.00 66 1024.5
20260507040557 50 86 1.0 3.0 0.00 0.00 0.00 65 1024.6
20260507040109 51 0 1.0 2.0 0.00 0.00 0.00 64 1024.5
20260507035556 51 83 1.0 4.0 0.00 0.00 0.00 63 1024.4
20260507035058 51 88 1.0 4.0 0.00 0.00 0.00 63 1024.4
20260507034557 52 80 0.0 4.0 0.00 0.00 0.00 61 1024.4
20260507034055 52 86 1.0 3.0 0.00 0.00 0.00 61 1024.2
20260507033556 53 80 1.0 3.0 0.00 0.00 0.00 61 1024.1
20260507033103 53 86 0.0 3.0 0.00 0.00 0.00 61 1024.1
20260507032556 53 88 1.0 3.0 0.00 0.00 0.00 60 1024.0
20260507032057 54 0 0.0 3.0 0.00 0.00 0.00 60 1024.0
20260507031619 54 82 0.0 3.0 0.00 0.00 0.00 58 1024.0
20260507031058 55 0 0.0 3.0 0.00 0.00 0.00 58 1024.0
20260507030556 55 81 0.0 3.0 0.00 0.00 0.00 55 1023.9
20260507030057 56 10 1.0 3.0 0.00 0.00 0.00 54 1023.8
20260507025556 57 11 0.0 2.0 0.00 0.00 0.00 54 1023.8
20260507025056 58 0 0.0 2.0 0.00 0.00 0.00 51 1023.8
20260507024559 59 0 0.0 2.0 0.00 0.00 0.00 51 1023.6
20260507024056 60 11 0.0 2.0 0.00 0.00 0.00 50 1023.6
20260507023556 60 0 0.0 1.0 0.00 0.00 0.00 51 1023.6
20260507023055 61 0 0.0 1.0 0.00 0.00 0.00 50 1023.4
20260507022556 61 0 0.0 2.0 0.00 0.00 0.00 48 1023.4
20260507022056 62 0 0.0 2.0 0.00 0.00 0.00 48 1023.2
20260507021601 63 0 0.0 2.0 0.00 0.00 0.00 43 1023.2
20260507021056 63 0 0.0 2.0 0.00 0.00 0.00 40 1023.1
20260507020558 64 0 0.0 2.0 0.00 0.00 0.00 41 1023.1
20260507020110 64 15 0.0 2.0 0.00 0.00 0.00 40 1023.0
20260507015556 65 15 0.0 2.0 0.00 0.00 0.00 38 1023.0
20260507015056 65 0 0.0 2.0 0.00 0.00 0.00 39 1023.0
20260507014559 65 0 0.0 2.0 0.00 0.00 0.00 38 1023.0
20260507014056 65 15 0.0 2.0 0.00 0.00 0.00 35 1023.0
20260507013556 66 15 0.0 2.0 0.00 0.00 0.00 34 1022.9
20260507013116 66 15 0.0 3.0 0.00 0.00 0.00 33 1022.8
20260507012556 65 14 0.0 3.0 0.00 0.00 0.00 32 1023.0
20260507012056 66 14 0.0 3.0 0.00 0.00 0.00 30 1022.9
20260507011601 66 13 0.0 3.0 0.00 0.00 0.00 31 1023.0
20260507011057 66 0 0.0 3.0 0.00 0.00 0.00 34 1023.0
20260507010555 66 13 0.0 3.0 0.00 0.00 0.00 32 1023.1
20260507010105 66 15 1.0 3.0 0.00 0.00 0.00 31 1023.1
20260507005556 67 15 1.0 3.0 0.00 0.00 0.00 30 1023.2
20260507005058 67 0 0.0 3.0 0.00 0.00 0.00 31 1023.0
20260507004554 67 15 0.0 3.0 0.00 0.00 0.00 30 1023.1
20260507004056 68 0 1.0 3.0 0.00 0.00 0.00 30 1023.1
20260507003556 68 0 0.0 3.0 0.00 0.00 0.00 29 1023.1
20260507003056 69 15 1.0 4.0 0.00 0.00 0.00 32 1023.1
20260507002555 69 15 1.0 4.0 0.00 0.00 0.00 30 1023.0
20260507002056 70 16 1.0 4.0 0.00 0.00 0.00 30 1023.1
20260507001557 70 0 1.0 4.0 0.00 0.00 0.00 28 1023.0
20260507001056 70 16 0.0 4.0 0.00 0.00 0.00 29 1023.0
20260507000558 69 15 0.0 4.0 0.00 0.00 0.00 30 1023.0
20260507000055 69 0 1.0 4.0 0.00 0.00 0.00 30 1023.1
20260506235557 69 13 0.0 3.0 0.00 0.00 0.00 31 1023.2
20260506235056 69 0 0.0 4.0 0.00 0.00 0.00 33 1023.1
20260506234554 68 14 1.0 4.0 0.00 0.00 0.00 31 1023.1
20260506234056 69 15 1.0 4.0 0.00 0.00 0.00 31 1023.2
20260506233556 69 13 1.0 4.0 0.00 0.00 0.00 33 1023.1
20260506233105 69 13 1.0 3.0 0.00 0.00 0.00 34 1023.1
20260506232555 69 0 1.0 4.0 0.00 0.00 0.00 33 1023.1
20260506232056 68 0 1.0 6.0 0.00 0.00 0.00 32 1023.1
20260506231600 68 14 1.0 7.0 0.00 0.00 0.00 34 1023.3
20260506231056 68 5 1.0 7.0 0.00 0.00 0.00 36 1023.3
20260506230555 68 13 1.0 4.0 0.00 0.00 0.00 34 1023.4
20260506225559 68 15 1.0 4.0 0.00 0.00 0.00 39 1023.4
20260506225056 68 16 1.0 4.0 0.00 0.00 0.00 40 1023.5
20260506224557 68 14 1.0 3.0 0.00 0.00 0.00 38 1023.5
20260506224056 68 15 1.0 4.0 0.00 0.00 0.00 41 1023.5
20260506223556 68 14 1.0 4.0 0.00 0.00 0.00 39 1023.6
20260506223057 68 15 1.0 4.0 0.00 0.00 0.00 42 1023.6
20260506222556 67 16 1.0 4.0 0.00 0.00 0.00 40 1023.7
20260506222056 67 16 1.0 4.0 0.00 0.00 0.00 47 1023.7
20260506221600 66 15 1.0 5.0 0.00 0.00 0.00 43 1023.7
20260506221057 66 14 1.0 5.0 0.00 0.00 0.00 44 1023.8
20260506220600 66 14 1.0 4.0 0.00 0.00 0.00 42 1023.8
20260506220059 66 0 0.0 3.0 0.00 0.00 0.00 42 1023.8
20260506215558 66 15 0.0 5.0 0.00 0.00 0.00 44 1023.9
20260506215055 66 14 1.0 5.0 0.00 0.00 0.00 43 1023.9
20260506214602 65 15 1.0 5.0 0.00 0.00 0.00 43 1024.0
20260506214057 66 14 1.0 5.0 0.00 0.00 0.00 41 1024.0
20260506213556 66 14 1.0 5.0 0.00 0.00 0.00 44 1024.1
20260506213056 66 16 1.0 5.0 0.00 0.00 0.00 46 1024.1
20260506212556 66 15 2.0 5.0 0.00 0.00 0.00 45 1024.1
20260506212056 66 5 1.0 5.0 0.00 0.00 0.00 45 1024.1
20260506211610 66 14 1.0 5.0 0.00 0.00 0.00 43 1024.1
20260506211056 66 14 1.0 5.0 0.00 0.00 0.00 41 1024.2
20260506210556 66 14 1.0 5.0 0.00 0.00 0.00 43 1024.2
20260506210109 66 13 1.0 4.0 0.00 0.00 0.00 43 1024.3
20260506205556 66 13 1.0 4.0 0.00 0.00 0.00 44 1024.3
20260506205056 66 15 0.0 2.0 0.00 0.00 0.00 47 1024.3
20260506204602 65 0 0.0 4.0 0.00 0.00 0.00 47 1024.3
20260506204058 64 15 1.0 4.0 0.00 0.00 0.00 50 1024.4
20260506203555 64 14 1.0 3.0 0.00 0.00 0.00 51 1024.3
20260506203100 63 13 0.0 3.0 0.00 0.00 0.00 50 1024.3
20260506202556 62 14 0.0 4.0 0.00 0.00 0.00 53 1024.4
20260506202057 62 15 1.0 4.0 0.00 0.00 0.00 54 1024.5
20260506201558 61 13 2.0 4.0 0.00 0.00 0.00 52 1024.5
20260506201057 61 15 1.0 4.0 0.00 0.00 0.00 55 1024.5
20260506200556 61 14 1.0 4.0 0.00 0.00 0.00 60 1024.6
20260506200105 60 16 1.0 4.0 0.00 0.00 0.00 63 1024.6